Location: ??????
(55.4348°N, 39.2112°E)
Time: 02:07:37
(UTC+00:00)

SAR-Lupe-1 - Pass Details

Date: 14 April 2024
Orbit: 479 x 482 km, 98.1° (Epoch: 04 May)

Event Time Altitude Azimuth Distance (km) Brightness Sun altitude
Rises 00:21:48 0° 14° (NNE) 2,563 8.8 -15.2°
Reaches altitude 10° 00:23:53 10° 14° (NNE) 1,677 7.7 -15.0°
Maximum altitude 00:27:29 80° 288° (WNW) 498 4.0 -14.6°
Enters shadow 00:29:27 25° 204° (SSW) 1,010 5.1 -14.4°
